Find Starlink 35220

NORAD ID: 65661 Int'l Des: 2025-211 Owner: SPXS Country: US Constellation: starlink operational
LEOCIRCULARRETROGRADESSO

当前视图

正在加载3D地球...

About Starlink 35220

Starlink 35220 (NORAD 65661) is a starlink constellation satellite (v2 mini) launched Sep 19, 2025 by SPXS of US. It operates in LEO, CIRCULAR, RETROGRADE, SSO orbit with a mass of 575.00 kg.

即将过境

Passes for default location (London). Set your location on the main map for personalized predictions.

高度历史

Loading altitude history...

两行轨道根数

1 65661U 25211K 26262.84142063 .00016989 00000-0 52727-3 0 9990
2 65661 97.2842 303.0986 0000295 261.6196 98.5013 15.33452402 56426
Epoch: Sep 19, 2026 • Age: 19 hours

当前状态

高度 468.1 km
远地点 / 近地点 N/A
速度 7.63 km/s
星下点 18.78°N, 108.48°W
发射日期 Sep 19, 2025
运行时间 0.9 years
类型 internet

技术详情

分类 Payload
质量 575.00 kg
干质量 530.00 kg
长度 0.30 m
跨度 29.00 m
形状 ? Box + pan
制造商 SPXS
平台类型 Starlink V2MO
阶段状态 In Orbit
所有者/国家 SPXS/US

Most Searched